• în Republica Moldova
  • Lista ţărilor
  • Pe 7 zile
  • Temperatura apei
  • Hartă satelitară
  • Meteo pe hartă
  • Widget-uri
  • user-avatar
    Intrare

    Meteo pe oră la Akimovka

    Astăzi, 22 Februarie, Vineri

    Timp Temperatura Precipitaţii Vânt Presiune Umiditate
    00:00 -13°C° 0 mm 8 m/s 739 mmHg 85%
    01:00 -13°C° 0.1 mm 8 m/s 740 mmHg 85%
    02:00 -13°C° 0.1 mm 8 m/s 740 mmHg 86%
    03:00 -15°C° 0.1 mm 8 m/s 741 mmHg 86%
    04:00 -15°C° 0.1 mm 8 m/s 741 mmHg 87%
    05:00 -15°C° 0.1 mm 8 m/s 741 mmHg 87%
    06:00 -15°C° 0.1 mm 8 m/s 742 mmHg 87%
    07:00 -15°C° 0.2 mm 8 m/s 742 mmHg 87%
    08:00 -15°C° 0.2 mm 8 m/s 743 mmHg 87%
    09:00 -15°C° 0.2 mm 8 m/s 744 mmHg 87%
    10:00 -15°C° 0.1 mm 8 m/s 744 mmHg 86%
    11:00 -15°C° 0.1 mm 8 m/s 745 mmHg 86%
    12:00 -13°C° 0.1 mm 8 m/s 746 mmHg 86%
    13:00 -13°C° 0.1 mm 8 m/s 747 mmHg 85%
    14:00 -13°C° 0.1 mm 8 m/s 747 mmHg 85%
    15:00 -13°C° 0.1 mm 8 m/s 748 mmHg 85%
    16:00 -13°C° 0.1 mm 7 m/s 749 mmHg 85%
    17:00 -13°C° 0.1 mm 7 m/s 750 mmHg 85%
    18:00 -14°C° 0.1 mm 7 m/s 751 mmHg 85%
    19:00 -14°C° 0 mm 7 m/s 752 mmHg 85%
    20:00 -14°C° 0 mm 7 m/s 753 mmHg 85%
    21:00 -14°C° 0 mm 7 m/s 753 mmHg 85%
    22:00 -15°C° 0 mm 6 m/s 754 mmHg 85%
    23:00 -15°C° 0 mm 6 m/s 755 mmHg 84%

    Mâine, 23 Februarie, Sâmbătă

    Timp Temperatura Precipitaţii Vânt Presiune Umiditate
    00:00 -15°C° 0 mm 5 m/s 755 mmHg 84%
    01:00 -17°C° 0 mm 5 m/s 756 mmHg 85%
    02:00 -17°C° 0 mm 5 m/s 757 mmHg 86%
    03:00 -17°C° 0 mm 5 m/s 757 mmHg 87%
    04:00 -18°C° 0 mm 5 m/s 758 mmHg 88%
    05:00 -18°C° 0 mm 5 m/s 758 mmHg 89%
    06:00 -17°C° 0 mm 4 m/s 759 mmHg 91%
    07:00 -17°C° 0 mm 4 m/s 759 mmHg 91%
    08:00 -17°C° 0 mm 4 m/s 760 mmHg 91%
    09:00 -17°C° 0 mm 4 m/s 760 mmHg 92%
    10:00 -16°C° 0 mm 4 m/s 761 mmHg 89%
    11:00 -15°C° 0 mm 4 m/s 761 mmHg 87%
    12:00 -12°C° 0 mm 4 m/s 761 mmHg 85%
    13:00 -10°C° 0 mm 3 m/s 761 mmHg 84%
    14:00 -9°C° 0 mm 3 m/s 761 mmHg 83%
    15:00 -9°C° 0 mm 3 m/s 760 mmHg 82%
    16:00 -9°C° 0 mm 3 m/s 760 mmHg 84%
    17:00 -10°C° 0 mm 3 m/s 760 mmHg 86%
    18:00 -12°C° 0 mm 3 m/s 759 mmHg 89%
    19:00 -10°C° 0 mm 3 m/s 759 mmHg 87%
    20:00 -11°C° 0 mm 4 m/s 759 mmHg 86%
    21:00 -10°C° 0 mm 4 m/s 759 mmHg 84%
    22:00 -10°C° 0.1 mm 4 m/s 758 mmHg 86%
    23:00 -11°C° 0.1 mm 5 m/s 757 mmHg 87%

    Poimâine, 24 Februarie, Duminică

    Timp Temperatura Precipitaţii Vânt Presiune Umiditate
    00:00 -10°C° 0.1 mm 6 m/s 757 mmHg 89%
    01:00 -10°C° 0.2 mm 6 m/s 756 mmHg 90%
    02:00 -10°C° 0.2 mm 6 m/s 756 mmHg 90%
    03:00 -10°C° 0.2 mm 6 m/s 755 mmHg 91%
    04:00 -9°C° 0.1 mm 6 m/s 755 mmHg 92%
    05:00 -9°C° 0.1 mm 6 m/s 754 mmHg 92%
    06:00 -8°C° 0.1 mm 5 m/s 754 mmHg 93%
    07:00 -7°C° 0.1 mm 5 m/s 754 mmHg 93%
    08:00 -7°C° 0.1 mm 5 m/s 754 mmHg 93%
    09:00 -6°C° 0.1 mm 5 m/s 753 mmHg 93%
    10:00 -5°C° 0.1 mm 5 m/s 753 mmHg 94%
    11:00 -4°C° 0.1 mm 5 m/s 754 mmHg 95%
    12:00 -2°C° 0.1 mm 5 m/s 754 mmHg 96%
    13:00 -1°C° 0.1 mm 5 m/s 754 mmHg 97%
    14:00 -1°C° 0.1 mm 4 m/s 754 mmHg 98%
    15:00 -1°C° 0.1 mm 4 m/s 754 mmHg 99%
    16:00 -1°C° 0.1 mm 4 m/s 754 mmHg 98%
    17:00 -1°C° 0.1 mm 4 m/s 754 mmHg 97%
    18:00 -1°C° 0.1 mm 4 m/s 754 mmHg 96%
    19:00 -1°C° 0 mm 4 m/s 754 mmHg 96%
    20:00 -1°C° 0 mm 4 m/s 754 mmHg 95%
    21:00 -1°C° 0 mm 4 m/s 754 mmHg 95%
    22:00 -1°C° 0 mm 4 m/s 754 mmHg 95%
    23:00 -1°C° 0 mm 4 m/s 753 mmHg 95%

    25 Februarie, Luni

    Timp Temperatura Precipitaţii Vânt Presiune Umiditate
    00:00 -1°C° 0 mm 4 m/s 753 mmHg 95%
    01:00 -1°C° 0 mm 4 m/s 753 mmHg 95%
    02:00 -2°C° 0 mm 5 m/s 752 mmHg 95%
    03:00 -2°C° 0 mm 5 m/s 752 mmHg 95%
    04:00 -2°C° 0.2 mm 5 m/s 751 mmHg 94%
    05:00 -2°C° 0.2 mm 6 m/s 750 mmHg 94%
    06:00 -2°C° 0.2 mm 7 m/s 750 mmHg 93%
    07:00 -2°C° 0 mm 6 m/s 749 mmHg 94%
    08:00 -1°C° 0 mm 6 m/s 749 mmHg 94%
    09:00 -1°C° 0 mm 6 m/s 748 mmHg 95%
    10:00 -1°C° 0.1 mm 6 m/s 748 mmHg 96%
    11:00 -1°C° 0.1 mm 6 m/s 748 mmHg 97%
    12:00 -1°C° 0.1 mm 6 m/s 747 mmHg 98%
    13:00 -1°C° 0 mm 6 m/s 747 mmHg 97%
    14:00 -1°C° 0 mm 6 m/s 747 mmHg 96%
    15:00 -1°C° 0 mm 6 m/s 747 mmHg 95%
    16:00 -1°C° 0 mm 6 m/s 747 mmHg 91%
    17:00 -2°C° 0 mm 6 m/s 746 mmHg 87%
    18:00 -2°C° 0 mm 7 m/s 746 mmHg 83%
    19:00 -2°C° 0 mm 6 m/s 746 mmHg 84%
    20:00 -3°C° 0 mm 6 m/s 746 mmHg 85%
    21:00 -3°C° 0 mm 6 m/s 745 mmHg 87%
    22:00 -3°C° 0.1 mm 6 m/s 745 mmHg 87%
    23:00 -3°C° 0.1 mm 6 m/s 744 mmHg 88%

    26 Februarie, Marţi

    Timp Temperatura Precipitaţii Vânt Presiune Umiditate
    00:00 -3°C° 0.1 mm 6 m/s 744 mmHg 89%
    01:00 -3°C° 0.1 mm 6 m/s 743 mmHg 89%
    02:00 -3°C° 0.1 mm 6 m/s 743 mmHg 89%
    03:00 -3°C° 0.1 mm 6 m/s 742 mmHg 89%
    04:00 -4°C° 0 mm 5 m/s 742 mmHg 90%
    05:00 -4°C° 0 mm 5 m/s 742 mmHg 91%
    06:00 -4°C° 0 mm 5 m/s 742 mmHg 92%
    07:00 -4°C° 0 mm 5 m/s 742 mmHg 91%
    08:00 -4°C° 0 mm 5 m/s 742 mmHg 90%
    09:00 -4°C° 0 mm 6 m/s 742 mmHg 90%
    10:00 -4°C° 0.1 mm 6 m/s 742 mmHg 88%
    11:00 -4°C° 0.1 mm 6 m/s 741 mmHg 86%
    12:00 -3°C° 0.1 mm 6 m/s 741 mmHg 84%
    13:00 -3°C° 0.1 mm 6 m/s 741 mmHg 84%
    14:00 -3°C° 0.1 mm 6 m/s 740 mmHg 84%
    15:00 -3°C° 0.1 mm 6 m/s 740 mmHg 83%
    16:00 -4°C° 0.1 mm 5 m/s 739 mmHg 85%
    17:00 -4°C° 0.1 mm 5 m/s 739 mmHg 87%
    18:00 -3°C° 0.1 mm 4 m/s 739 mmHg 88%
    19:00 -3°C° 0.2 mm 4 m/s 739 mmHg 89%
    20:00 -4°C° 0.2 mm 4 m/s 739 mmHg 90%
    21:00 -4°C° 0.2 mm 4 m/s 739 mmHg 90%
    22:00 -4°C° 0 mm 4 m/s 739 mmHg 89%
    23:00 -6°C° 0 mm 5 m/s 739 mmHg 89%

    27 Februarie, Miercuri

    Timp Temperatura Precipitaţii Vânt Presiune Umiditate
    00:00 -6°C° 0 mm 5 m/s 739 mmHg 88%
    01:00 -7°C° 0 mm 5 m/s 739 mmHg 88%
    02:00 -7°C° 0 mm 5 m/s 740 mmHg 88%
    03:00 -9°C° 0 mm 6 m/s 740 mmHg 88%
    04:00 -9°C° 0 mm 6 m/s 741 mmHg 89%
    05:00 -10°C° 0 mm 6 m/s 741 mmHg 90%
    06:00 -11°C° 0 mm 6 m/s 741 mmHg 91%
    07:00 -11°C° 0 mm 6 m/s 742 mmHg 91%
    08:00 -11°C° 0 mm 6 m/s 743 mmHg 91%
    09:00 -11°C° 0 mm 6 m/s 743 mmHg 91%
    10:00 -10°C° 0 mm 6 m/s 744 mmHg 90%
    11:00 -10°C° 0 mm 6 m/s 744 mmHg 90%
    12:00 -9°C° 0 mm 6 m/s 745 mmHg 89%
    13:00 -8°C° 0 mm 5 m/s 745 mmHg 88%
    14:00 -8°C° 0 mm 5 m/s 745 mmHg 87%
    15:00 -8°C° 0 mm 5 m/s 745 mmHg 85%
    16:00 -9°C° 0 mm 4 m/s 745 mmHg 85%
    17:00 -9°C° 0 mm 3 m/s 745 mmHg 84%
    18:00 -10°C° 0 mm 3 m/s 745 mmHg 84%
    19:00 -9°C° 0 mm 2 m/s 745 mmHg 85%
    20:00 -9°C° 0 mm 2 m/s 744 mmHg 86%
    21:00 -10°C° 0 mm 2 m/s 744 mmHg 87%
    22:00 -10°C° 0 mm 3 m/s 743 mmHg 89%
    23:00 -10°C° 0 mm 3 m/s 742 mmHg 91%
    Arată mai mult